This demonstration page uses our WeatherBlox Daily Observations layout. Learn more.

Left ArrowRight Arrow

Hourly Observations for June 19, 2021

Temp ( °F °C ) Dew Point ( °F °C ) Humidity (%) Winds ( mph kmh ) Pressure ( in mb ) Visibility ( mi km ) Precip ( " mm )
12:15 am 00:15 Clear 66 19.1 62 16.4 84 84 NNE 3 6 29.84 1010 10 16 N/A
12:35 am 00:35 Clear 65 18.5 61 16 85 85 N 5 7 29.84 1010 10 16 N/A
12:55 am 00:55 Clear 65 18.5 60 15.5 83 83 N 8 13 29.84 1010 10 16 N/A
1:15 am 01:15 Clear 65 18.5 59 15 80 80 N 8 13 29.85 1011 10 16 N/A
1:35 am 01:35 Clear 65 18.5 58 14.7 79 79 N N/A 29.85 1011 10 16 N/A
1:55 am 01:55 Clear 66 19 57 14 73 73 NNE 3 6 29.84 1011 10 16 N/A
2:15 am 02:15 Clear 64 17.8 58 14.6 82 82 NW 5 7 29.86 1011 10 16 N/A
2:35 am 02:35 Clear 64 17.6 58 14.5 82 82 NNW 5 7 29.86 1011 10 16 N/A
2:55 am 02:55 Clear 64 17.9 58 14.3 80 80 N 3 6 29.85 1011 10 16 N/A
3:15 am 03:15 Clear 63 17.4 58 14.3 82 82 N N/A 29.85 1011 10 16 N/A
3:35 am 03:35 Clear 63 17 58 14.5 85 85 N N/A 29.84 1010 10 16 N/A
3:55 am 03:55 Clear 61 16.1 57 14 87 87 NW 5 7 29.86 1011 10 16 N/A
4:15 am 04:15 Clear 61 16.3 56 13.5 84 84 NNW 3 6 29.84 1011 10 16 N/A
4:35 am 04:35 Clear 60 15.7 56 13.4 86 86 N 3 6 29.85 1011 10 16 N/A
4:55 am 04:55 Clear 60 15.8 55 12.8 82 82 N N/A 29.85 1011 10 16 N/A
5:15 am 05:15 Clear 59 15 55 13 88 88 WNW 3 6 29.86 1011 10 16 N/A
5:35 am 05:35 Clear 58 14.3 55 12.8 91 91 NW 5 7 29.86 1011 10 16 N/A
5:55 am 05:55 Clear 57 13.8 54 12.2 90 90 NNE 5 7 29.87 1011 10 16 N/A
6:15 am 06:15 Sunny 61 16.1 54 12.4 79 79 NNE 7 11 29.85 1011 10 16 N/A
6:35 am 06:35 Sunny 60 15.6 54 12.3 81 81 N N/A 29.87 1012 10 16 N/A
6:55 am 06:55 Sunny 61 16.1 55 12.5 79 79 NW 3 6 29.87 1011 10 16 N/A
7:15 am 07:15 Sunny 63 17 55 12.5 75 75 N 5 7 29.87 1011 10 16 N/A
7:35 am 07:35 Sunny 64 17.9 53 11.7 67 67 N 6 9 29.87 1012 10 16 N/A
7:55 am 07:55 Sunny 65 18.5 53 11.6 64 64 NNE 7 11 29.87 1011 10 16 N/A
8:15 am 08:15 Sunny 67 19.2 53 11.5 61 61 ENE 9 15 29.87 1011 10 16 N/A
8:35 am 08:35 Sunny 68 20 52 11.2 57 57 ENE 13 20 29.86 1011 10 16 N/A
8:55 am 08:55 Sunny 68 20 52 11.1 57 57 E 13 20 29.87 1012 10 16 N/A
9:15 am 09:15 Sunny 69 20.4 52 11.3 56 56 E 18 30 29.83 1010 10 16 N/A
9:35 am 09:35 Sunny 69 20.8 52 10.9 53 53 E 16 26 29.83 1010 10 16 N/A
9:55 am 09:55 Sunny 72 22.4 51 10.7 48 48 E 18 30 29.79 1009 10 16 N/A
10:15 am 10:15 Sunny 73 22.9 51 10.7 46 46 E 20 31 29.80 1009 10 16 N/A
10:35 am 10:35 Sunny 75 24 51 10.6 43 43 E 17 28 29.79 1009 10 16 N/A
10:55 am 10:55 Sunny 76 24.5 50 10.1 40 40 E 17 28 29.77 1008 10 16 N/A
11:15 am 11:15 Sunny 77 24.9 50 10.2 40 40 E 14 22 29.77 1008 10 16 N/A
11:35 am 11:35 Sunny 78 25.4 51 10.3 39 39 E 14 22 29.77 1008 10 16 N/A
11:55 am 11:55 Sunny 78 25.3 51 10.5 39 39 ESE 13 20 29.78 1008 10 16 N/A
12:15 pm 12:15 Sunny 80 26.5 52 11.1 38 38 ESE 9 15 29.77 1008 10 16 N/A
12:35 pm 12:35 Sunny 80 26.7 51 10.8 37 37 E 9 15 29.76 1008 10 16 N/A
12:55 pm 12:55 Sunny 80 26.6 53 11.4 39 39 E 9 15 29.76 1008 10 16 N/A
1:15 pm 13:15 Sunny 81 27.2 53 11.7 38 38 ESE 9 15 29.75 1008 10 16 N/A
1:35 pm 13:35 Sunny 81 27.1 53 11.5 38 38 ESE 8 13 29.74 1007 10 16 N/A
1:55 pm 13:55 Sunny 81 27 53 11.7 39 39 ENE 5 7 29.73 1007 10 16 N/A
2:15 pm 14:15 Sunny 81 27.1 53 11.8 39 39 E 9 15 29.73 1007 10 16 N/A
2:35 pm 14:35 Sunny 81 27.1 53 11.6 38 38 E 7 11 29.73 1007 10 16 N/A
2:55 pm 14:55 Sunny 80 26.9 54 12.1 40 40 ESE 8 13 29.72 1007 10 16 N/A
3:15 pm 15:15 Sunny 81 27 55 12.7 41 41 E 10 17 29.71 1006 10 16 N/A
3:35 pm 15:35 Sunny 81 27.1 56 13.1 42 42 E 12 19 29.70 1006 10 16 N/A
3:55 pm 15:55 Sunny 81 27.3 56 13.5 43 43 E 7 11 29.70 1006 10 16 N/A
4:15 pm 16:15 Sunny 81 27.2 56 13.5 43 43 ENE 9 15 29.69 1006 10 16 N/A
4:35 pm 16:35 Sunny 81 27.3 56 13.5 43 43 ENE 10 17 29.68 1005 10 16 N/A
4:55 pm 16:55 Sunny 81 27.3 56 13.5 43 43 E 10 17 29.68 1005 10 16 N/A
5:15 pm 17:15 Sunny 82 27.5 56 13.5 42 42 E 9 15 29.65 1004 10 16 N/A
5:35 pm 17:35 Sunny 83 28.2 57 13.7 41 41 E 8 13 29.63 1004 10 16 N/A
5:55 pm 17:55 Sunny 81 27.1 57 14 45 45 E 8 13 29.63 1004 10 16 N/A
6:15 pm 18:15 Sunny 80 26.7 57 14 46 46 E 10 17 29.64 1004 10 16 N/A
6:35 pm 18:35 Sunny 80 26.6 58 14.3 47 47 E 7 11 29.63 1003 10 16 N/A
6:55 pm 18:55 Sunny 79 26.3 58 14.4 48 48 ENE 8 13 29.64 1004 10 16 N/A
7:15 pm 19:15 Sunny 78 25.6 59 15 52 52 NE 6 9 29.65 1004 10 16 N/A
7:35 pm 19:35 Sunny 77 25.1 59 15.2 54 54 N 6 9 29.67 1005 10 16 N/A
7:55 pm 19:55 Sunny 76 24.5 60 15.5 57 57 NNW 8 13 29.70 1006 10 16 N/A
8:15 pm 20:15 Mostly Cloudy 76 24.3 60 15.7 59 59 N 6 9 29.72 1006 10 16 N/A
8:35 pm 20:35 Partly Cloudy with Light Rain 74 23.3 62 16.4 65 65 N 7 11 29.72 1007 10 16 N/A
8:55 pm 20:55 Mostly Cloudy with Rain 72 22.2 64 17.7 76 76 NNW 7 11 29.73 1007 7 11 N/A
9:15 pm 21:15 Cloudy with Light Rain 70 21.1 64 18 83 83 N 7 11 29.70 1006 10 16 0.01 0.25
9:35 pm 21:35 Partly Cloudy with Light Rain 70 21.1 63 17.1 78 78 NNE 12 19 29.64 1004 10 16 0.01 0.25
9:55 pm 21:55 Clear 70 21 62 16.8 77 77 E 5 7 29.65 1004 10 16 0.01 0.25
10:15 pm 22:15 Partly Cloudy with Light Rain 69 20.4 64 17.5 84 84 W 6 9 29.65 1004 10 16 0.01 0.25
10:35 pm 22:35 Partly Cloudy 68 20.1 64 17.9 87 87 W 8 13 29.65 1004 10 16 0.01 0.25
10:55 pm 22:55 Partly Cloudy 68 20.2 63 17.4 84 84 S 17 28 29.68 1005 10 16 0.01 0.25
11:15 pm 23:15 Partly Cloudy with Nearby Thunderstorms 67 19.6 64 17.5 88 88 SSE 32 52 29.58 1002 10 16 N/A
11:35 pm 23:35 Partly Cloudy with Thunderstorms 67 19.4 63 17.1 87 87 SSE 38 61 29.49 999 10 16 0.01 0.25
11:55 pm 23:55 Clear with Nearby Thunderstorms 71 21.7 61 16.2 71 71 SE 20 31 29.50 999 10 16 0.01 0.25

Powered by AerisWeather